PAKTES 1A

导读

PAKTES 1A全称为巴基斯坦技术评估卫星-1A,由巴基斯坦空间与外大气层研究委员会全程自主研制,是巴基斯坦国产科学实验卫星。2018年7月9日,该卫星在酒泉卫星发射中心同巴基斯坦遥感卫星一号一同由中国长征二号丙运载火箭以“一箭双星”方式发射升空。PAKTES 1A重285kg,运行于610公里轨道,设计寿命三年,主要开展卫星平台技术验证试验,也是中巴航天合作的重要成果。

Basic Information
目录编号:
43529
目录名称:
PAKTES 1A
国际标识:
2018-056A
轨道中心:
EARTH
卫星名称:
PAKTES 1A
卫星全名:
--
卫星状态:
在轨 (已飞行2979 天)
发射日期:
2018-07-09 UTC
国别 :
巴基斯坦 (PK)
星等 :
--
Orbit Information
数据来源 国际轨道数据 AOE轨道数据
星历时间 2026-09-05T02:14:27+0800
2小时前
查看轨道信息
2026-09-04T12:00:00+0800
16小时前
查看轨道信息
半长轴 6946.935km 6946.959km
偏心率 0.0020092 0.0020184
轨道倾角 98.138° 98.137°
近地点辐角 209.875° 212.018°
升交点赤经 47.705° 47.087°
平近点角 150.132° 187.086°
近地点 554.84km 554.8km
远地点 582.756km 582.844km
周期 96.039分钟 96.040分钟
每日圈数 14.993842 14.993766
Detailed Information
使用方式:
暂无
2D Orbit Map
3D Orbit Map
Orbit Altitude Analysis Chart
Orbit Inclination Analysis Chart
Orbit Comprehensive Analysis Chart
View Comprehensive Chart
Conjunction Data List
Event ID Objects TCA Miss Dist (km) Collision Risk Probability Collision Risk Index (CRI) Action
CDM_260905-142004-308204-352922
2026-09-05T
14:20:16+0000
0.443 km
远距离
1.936878E-4 高风险 0.81
CDM_260906-040803-349804-352922
2026-09-06T
04:08:59+0000
2.292 km
极远距离
2.053464E-6 低风险 0.41
CDM_260903-175303-589804-352924
2026-09-03T
17:53:53+0000
2.190 km
极远距离
1.735583E-6 低风险 0.4